Location: Asheville, NC
(35.6000°N, 82.5500°W)
Time: 20:20:06
(UTC-04:00)

Vanguard 2 Rocket - Pass Details

Date: 16 March 2018
Orbit: 553 x 3328 km, 32.9° (Epoch: 24 June)

Event Time Altitude Azimuth Distance (km) Brightness Sun altitude
Rises 15:43:20 0° 216° (SW) 3,367 10.6 42.9°
Reaches altitude 10° 15:47:01 10° 194° (SSW) 2,110 9.6 42.3°
Maximum altitude 15:49:45 15° 157° (SSE) 1,607 8.6 41.9°
Drops below altitude 10° 15:52:12 10° 119° (ESE) 1,842 8.5 41.6°
Sets 15:55:04 0° 95° (E) 2,713 9.0 41.1°
